Other Public Products
Issued by NWS Grand Forks, ND

Home | Current Version | Previous Version | Graphics & Text | Print | Product List | Glossary On
Versions: 1 2 3 4 5 6 7 8 9 10 11 12 13 14 15 16 17 18 19 20 21 22 23 24 25 26 27 28 29 30 31 32 33 34 35 36 37 38 39 40 41 42 43 44 45 46 47 48 49 50
000
FPUS83 KFGF 272331
OPUFGF
PRAIRIE TO PINES WEATHER ROUNDUP
NATIONAL WEATHER SERVICE EASTERN NORTH DAKOTA/GRAND FORKS ND
600 PM CDT FRI MAY 27 2016

 **SATELLITE DATA USED TO AUGMENT SKY COVER AT AUTOMATED STATIONS**
 *****  WEATHER ACROSS EASTERN NORTH DAKOTA  *****

CITY           SKY/WX    TMP DP  RH WIND       PRES   REMARKS
GRAND FORKS    PTSUNNY   75  53  46 N7        29.75F
GRAND FORKS AF MOSUNNY   72  51  48 NE7       29.77F
GRAND CITY NWS   N/A     72 N/A N/A N3          N/A
BUXTON           N/A    N/A N/A N/A E3          N/A
DEVILS LAKE    MOSUNNY   70  50  49 NW9       29.80S
FARGO          LGT RAIN  62  59  90 NW3       29.77R
WAHPETON ARPT  CLOUDY    68  54  60 NW20      29.76R
$$

 *****  WEATHER ACROSS CENTRAL AND WESTERN NORTH DAKOTA  *****

CITY           SKY/WX    TMP DP  RH WIND       PRES   REMARKS
JAMESTOWN      CLOUDY    70  50  49 NW5       29.77F
BISMARCK       MOSUNNY   70  46  42 CALM      29.79F
MINOT          PTSUNNY   69  50  50 E5        29.80F
MINOT AFB      CLOUDY    67  51  57 NE14      29.79F
GARRISON         N/A     65  51  60 VRB3      29.80F
WILLISTON      CLOUDY    65  50  58 E9        29.83S
DICKINSON      PTSUNNY   65  42  43 E7        29.79F
HETTINGER      CLOUDY    65  47  52 S7        29.83S
$$

 *****  OTHER OBSERVATIONS NORTHEAST NORTH DAKOTA  *****

CITY           SKY/WX    TMP DP  RH WIND       PRES   REMARKS
WALHALLA       LGT RAIN  66  66 100 NE15      29.80R
LANGDON        FAIR      66  59  77 N17       29.82R
CAVALIER       FAIR      72  55  56 E5        29.78S
GRAFTON        FAIR      72  54  53 NE6       29.78F
CANDO          CLOUDY    63  59  88 N15       29.84S
FORT TOTTEN      N/A     71  50  46 N5        29.95S
ROLLA          CLOUDY    57  57 100 N15       29.87R
RUGBY          FAIR      63  57  82 NE23      29.81S
 ***** THE ABOVE OBSERVATIONS ARE NON NWS ARE NOT QUALITY
        CONTROLLED AND MAY MIS-REPORT RAIN FOR SNOW...
$$

 *****  OTHER OBSERVATIONS SOUTHEAST NORTH DAKOTA *****

CITY           SKY/WX    TMP DP  RH WIND       PRES   REMARKS
COOPERSTOWN    NOT AVBL
VALLEY CITY    FAIR      70  57  64 N8        29.79S
OAKES            N/A    N/A N/A N/A MISG        N/A
GWINNER        MOCLDY    63  61  94 W12       29.78S
SHEYENNE NWR     N/A     59  58  97 W7        29.95S
BUFFALO          N/A     67  56  67 E12         N/A
WYNDMERE         N/A     70  57  64 W15         N/A
 ***** THE ABOVE OBSERVATIONS ARE NON NWS ARE NOT QUALITY
       CONTROLLED AND MAY MIS-REPORT RAIN FOR SNOW...
$$

  *****  WEATHER ACROSS NORTHERN MINNESOTA  *****

CITY           SKY/WX    TMP DP  RH WIND       PRES   REMARKS
FLAG ISLAND    LGT RAIN  64  57  77 SE3       29.83S
WARROAD        RAIN      63  59  88 E5        29.83S
ROSEAU         RAIN      63  57  82 E6        29.82S
HALLOCK        MOSUNNY   73  52  46 NE5       29.76F
THF RVR FALLS  CLOUDY    66  57  72 SE7       29.79S
HALSTAD        NOT AVBL
FOSSTON        CLOUDY    66  57  72 SE12      29.80R
BAUDETTE       CLOUDY    68  52  56 S16G24    29.84R
WASKISH        CLOUDY    66  55  68 SE12G18   29.83S
CROOKSTON      RAIN      63  61  94 E8        29.78S
$$
  *****  WEATHER ACROSS CENTRAL AND WEST MINNESOTA  *****

CITY           SKY/WX    TMP DP  RH WIND       PRES   REMARKS
BEMIDJI        CLOUDY    64  54  69 SE15      29.83S
PARK RAPIDS    CLOUDY    64  54  69 SE10      29.81S
WADENA         CLOUDY    63  57  82 SE15G21   29.80S
DETROIT LAKES  PTSUNNY   68  59  73 SE9       29.79F
MOORHEAD       LGT RAIN  63  61  94 NW7       29.77F
FERGUS FALLS   CLOUDY    70  57  64 E8        29.73S
ELBOW LAKE     FAIR      68  59  73 SE6       29.76R
MORRIS MN      CLOUDY    70  61  73 E7        29.73R
STAPLES        LGT RAIN  61  57  88 E3        29.80S
WHEATON        CLOUDY    72  57  60 W3        29.75F
$$
  *****  WEATHER ELSEWHERE ACROSS MINNESOTA  *****

CITY           SKY/WX    TMP DP  RH WIND       PRES   REMARKS
DULUTH         LGT RAIN  52  51  97 E8        29.84F
INTRNTL FALLS  CLOUDY    68  52  56 S3        29.85F
ELY            LGT RAIN  61  57  88 E3        29.88F
CLOQUET        CLOUDY    52  50  93 E5        29.84S FOG
BRAINERD       LGT RAIN  61  59  93 E8        29.81F
HIBBING        CLOUDY    60  56  86 NE6       29.85F
ALEXANDRIA     CLOUDY    63  60  90 E15       29.78F
SAINT CLOUD    LGT RAIN  60  59  96 N5        29.78F FOG
MINNEAPOLIS    CLOUDY    67  63  87 N7        29.74F
$$

  *****  WEATHER ACROSS SOUTH DAKOTA  *****

CITY           SKY/WX    TMP DP  RH WIND       PRES   REMARKS
SIOUX FALLS    CLOUDY    75  60  59 NE8       29.71F
BROOKINGS      SUNNY     71  55  56 N9        29.72
WATERTOWN      SUNNY     69  54  58 NW7       29.74F
HURON          MOSUNNY   71  61  70 N10       29.73F
SISSETON         N/A     67  57  70 W12       29.73F
ABERDEEN       CLOUDY    65  59  81 SW6       29.78S
MITCHELL       PTSUNNY   71  57  61 NE6       29.73F
PIERRE         CLOUDY    68  54  60 N5        29.77S
MOBRIDGE       CLOUDY    71  46  40 CALM      29.76F
RAPID CITY     PTSUNNY   63  50  62 S14       29.84S
$$

  *****  SOME WEATHER IN NEARBY STATES *****

CITY           SKY/WX    TMP DP  RH WIND       PRES   REMARKS
GLASGOW MT     MOSUNNY   68  45  43 CALM      29.81F
GREAT FALLS MT CLOUDY    64  35  34 NW18      29.82S
CHEYENNE WY    PTSUNNY   55  41  59 NE12      29.91F
SCOTTSBLUFF NE CLOUDY    59  45  59 S6        29.88R
OMAHA NE       CLOUDY    77  60  55 E9        29.68F
DES MOINES IA  CLOUDY    76  61  59 NW6       29.73S
DAVENPORT IA   MOSUNNY   78  68  71 S17       29.75F
CHICAGO IL     CLOUDY    79  65  62 S13       29.81F
EAU CLAIRE WI  CLOUDY    68  65  90 S15       29.71F
LA CROSSE WI   LGT RAIN  73  67  81 S8        29.72F
$$

  *****  SOME NATIONAL WEATHER *****

CITY           SKY/WX    TMP DP  RH WIND       PRES   REMARKS
LA GUARDIA NY  PTSUNNY   79  68  69 S12       30.00S
RALEIGH NC     MOSUNNY   84  62  47 S7        30.07F
ATLANTA GA     PTSUNNY   83  59  44 E10       30.03F
NEW ORLEANS LA CLOUDY    82  67  60 SE10      29.92R
OKLAHOMA CITY  CLOUDY    75  64  68 S13       29.67S THUNDER
ALBUQUERQUE NM PTSUNNY   74  22  14 W14       29.86S
SALT LAKE CITY MOSUNNY   69  39  33 S14       29.89F
LOS ANGELES CA MOSUNNY   67  55  65 W17       29.86F
BOISE ID       SUNNY     68  30  24 N15G24    29.93F
SEATTLE WA     PTSUNNY   64  39  39 W12G18    30.13F
$$

*** WEATHER ACROSS MANITOBA...SASKATCHEWAN AND ONTARIO ***
                ***ONTARIO***

CITY           SKY/WX    TMP DP  RH WIND       PRES   REMARKS
GERALDTON      CLOUDY    72  57  60 SE9       29.90S
THUNDER BAY    LGT RAIN  54  50  87 E6        29.91S
SIOUX LOOKOUT  CLOUDY    64  55  72 W6        29.88S
TORONTO        PTSUNNY   84  64  51 SW10      29.93S
BIG TROUT LK   CLOUDY    46  37  71 NE8G17    30.09R
PICKLE LAKE    CLOUDY    57  54  88 NE12G17   29.94R
DRYDEN         CLOUDY    64  61  88 VRB2      29.88S
KENORA         LGT RAIN  61  59  94 S12G18    29.86R
$$
                *** MANITOBA***

CITY           SKY/WX    TMP DP  RH WIND       PRES   REMARKS
BRANDON        PTSUNNY   55  52  88 NE23      29.89S
DAUPHIN        CLOUDY    54  46  76 N16       29.96F
ISLAND LAKE    CLOUDY    46  39  76 NE9G18    30.10S
PILOT MOUND      N/A     59  54  82 NE14G23     N/A
THE PAS        CLOUDY    54  37  54 E10       30.06F
THOMPSON       PTSUNNY   45  34  65 E10G18    30.18F
WINNIPEG       MOSUNNY   68  63  83 N18       29.81F
LYNN LAKE      SUNNY     52  34  50 SE14      30.14S
CHURCHILL      CLOUDY    32  27  80 NE6       30.37R
GILLAM         CLOUDY    41  32  70 NE9       30.25F
$$
                ***SASKATCHEWAN***

CITY           SKY/WX    TMP DP  RH WIND       PRES   REMARKS
ESTEVAN        PTSUNNY   63  57  82 E10       29.85S
KINDERSLEY     PTSUNNY   72  41  33 SE22G28   29.78F
LLOYDMINSTER   TSTM      64  50  59 SE17      29.78S
PRINCE ALBERT  PTSUNNY   64  48  55 E14       29.93R
REGINA         PTSUNNY   68  48  49 E20       29.86S
YORKTON        SUNNY     64  52  63 NE18G24   29.90S   C1F1C2F2C3F3C4F4C5F5C6F6C7F7C8F8C9F9CaFaCbFbCcFcCdFdCe!



USA.gov is the U.S. government's official web portal to all federal, state and local government web resources and services.